Location: *
(50.5492°N, 7.7469°E)
Time: 21:05:51
(UTC+00:00)

Daily predictions for brighter satellites

Satellite Brightness Start Highest point End
(mag) Time Altitude Azimuth Time Altitude Azimuth Time Altitude Azimuth
Cosmos 2233 Rocket 4.1 17:40:08 10° S 17:46:21 85° W 17:52:34 10° N
COSMO-SKYMED 1 2.6 17:44:47 10° NNE 17:49:09 83° ESE 17:53:30 10° SSW
Nadezhda 4 Rocket 4.4 17:45:57 10° N 17:51:44 41° ENE 17:57:29 10° SE
Cosmos 1689 Rocket 2.8 17:50:03 10° N 17:53:01 59° WNW 17:55:56 10° SSW
Ariane Rocket 4.1 17:50:02 10° ESE 17:54:08 25° ENE 17:58:16 10° N
H-2A R/B 2.3 17:50:03 10° SE 17:54:51 48° ENE 17:59:49 10° N
SJ 16-02 3.6 17:52:19 10° WSW 17:56:08 29° NW 17:59:59 10° N
USA 116 4.1 17:55:54 10° NNE 17:59:21 39° E 18:03:12 10° S
Cosmos 2263 Rocket 2.8 17:53:54 10° SW 17:59:25 60° NW 18:04:59 10° NNE
COSMOS 2406 4.3 17:55:52 10° NNW 18:00:47 29° NE 18:05:40 10° ESE
Cosmos 1939 Rocket 4.0 17:58:48 10° S 18:02:50 51° W 18:06:55 10° NNW
Cosmos 1844 Rocket 3.1 17:58:48 10° S 18:03:57 41° ESE 18:09:10 10° NE
Cosmos 1707 2.7 18:00:25 10° N 18:04:17 83° E 18:08:06 10° SSE
Cosmos 1626 3.9 18:03:23 10° NNE 18:05:31 15° ENE 18:07:28 11° E
Cosmos 372 Rocket 4.0 18:00:35 10° SSW 18:05:47 71° ESE 18:11:00 10° NNE
NOSS 3-2 (C) 4.1 17:58:39 10° NW 18:05:59 79° NE 18:14:23 10° SE
ATLAS CENTAUR R/B 3.9 18:08:44 10° NNW 18:09:56 11° NNW 18:11:09 10° N
Cosmos 1844 4.2 18:06:13 10° S 18:11:25 38° ESE 18:16:35 10° NE
ISS -3.8 18:08:15 10° WSW 18:11:38 79° SSE 18:14:49 11° ENE
Cosmos 2034 Rocket 4.3 18:05:54 10° SSE 18:11:55 47° E 18:17:55 10° NNE
Meteor 2-5 Rocket 4.4 18:06:46 10° N 18:11:55 34° ENE 18:17:08 10° SE
NOSS 3-4 (A) 4.4 18:08:22 10° SSE 18:12:53 23° ESE 18:17:36 10° ENE
NOSS 3-4 (C) 4.4 18:08:30 10° SSE 18:13:00 23° ESE 18:17:41 10° ENE
USA 186 3.0 18:11:08 10° SE 18:13:51 25° ENE 18:16:36 10° N
Lacrosse 4 Rocket 3.3 18:11:23 10° N 18:13:56 16° NNE 18:16:29 10° ENE
Meteor 1-12 Rocket 4.3 18:09:24 10° S 18:15:13 67° E 18:20:57 10° NNE
Cosmos 1300 Rocket 3.5 18:16:05 10° S 18:20:28 69° E 18:24:55 10° NNE
Okean 1 Rocket 3.9 18:19:58 10° SSE 18:23:48 29° E 18:27:40 10° NNE
Sich 1 Rocket 4.0 18:20:20 10° SSW 18:24:50 72° WNW 18:29:26 10° N
CENTAUR R/B 3.2 18:17:05 10° NW 18:25:03 89° NE 18:33:52 10° SE
NOSS 2-2 (E) 4.0 18:22:14 10° WSW 18:25:45 52° NW 18:29:57 10° NE
Cosmos 1833 Rocket 3.6 18:21:18 10° NNW 18:26:21 32° NE 18:30:12 16° E
Cosmos 2298 Rocket 4.0 18:21:45 10° SSW 18:27:04 73° ESE 18:32:24 10° NNE
Resurs 01 Rocket 3.4 18:25:52 14° E 18:27:30 16° ENE 18:30:13 10° NNE
CSL-04 Debris 4.4 18:25:37 10° S 18:31:00 74° WSW 18:36:26 10° NNW
CSL-04 Rocket 3.9 18:27:30 10° S 18:32:57 75° WSW 18:38:31 10° NNW
Cosmos 1025 Rocket 3.3 18:29:16 10° NNW 18:33:40 72° W 18:38:03 10° S
Cosmos 1766 4.1 18:31:23 10° SSE 18:34:46 28° E 18:38:12 10° NNE
Okean 2 Rocket 3.2 18:30:33 10° S 18:35:02 85° W 18:39:32 10° N
ATLAS 2AS CENTAUR R/B 3.5 18:28:17 10° S 18:35:19 36° ESE 18:42:19 10° NE
NOSS 2-2 (D) 4.0 18:32:07 10° WSW 18:35:37 53° NW 18:39:44 10° NE
YAOGAN 1 3.8 18:31:29 10° S 18:35:38 45° W 18:39:49 10° NNW
ATLAS 3B R/B 3.1 18:30:47 10° NW 18:37:25 52° NE 18:42:35 18° ESE
Abrixas rocket 3.1 18:38:19 10° W 18:40:54 31° SSW 18:42:11 21° SSE
CREW DRAGON DEMO-1 DEB 3.7 18:39:50 10° W 18:42:43 39° SSW 18:44:16 21° SSE
SPOT 3 Rocket 4.4 18:40:10 19° ESE 18:42:57 31° ENE 18:47:27 10° N
ARIANE 5 R/B 4.5 18:42:31 13° ENE 18:43:08 14° NE 18:45:19 10° NNE
Cosmos 1536 Rocket 3.8 18:38:59 10° NNW 18:43:28 77° W 18:47:55 10° S
Cosmos 1125 Rocket 3.5 18:42:26 10° SSW 18:47:42 69° ESE 18:53:00 10° NNE
Cosmos 1892 Rocket 4.4 18:46:19 10° N 18:50:09 30° ENE 18:51:25 25° E
Resurs 1-3 4.4 18:48:54 24° ESE 18:50:39 33° ENE 18:54:37 10° N
SJ-6B 2.8 18:48:31 21° SE 18:50:48 52° ENE 18:54:31 10° N
CZ-4 R/B 3.8 18:49:53 10° SSW 18:53:23 25° W 18:56:53 10° NW
Cosmos 2195 Rocket 4.5 18:47:28 10° N 18:53:42 64° ENE 18:59:49 10° SSE
Cosmos 2150 Rocket 4.3 18:49:16 10° SSW 18:54:40 77° WNW 19:00:11 10° NNE
CZ-2C R/B 4.3 18:50:14 10° S 18:55:25 47° W 19:00:55 10° NNW
Cosmos 1674 2.8 18:52:00 10° NNW 18:55:52 78° W 18:59:41 10° S
Cosmos 1464 Rocket 4.4 18:49:57 10° SSW 18:56:03 68° WNW 19:02:16 10° N
Cosmos 2026 Rocket 4.1 18:50:14 10° N 18:56:33 59° ENE 19:02:16 13° SSE
Cosmos 1092 Rocket 3.9 18:50:36 10° N 18:56:47 74° ENE 19:02:59 10° SSE
Cosmos 2285 Rocket 3.9 18:52:12 10° S 18:58:27 69° ESE 19:04:47 10° NNE
MOS 1 Rocket 3.2 18:57:45 10° N 19:02:10 76° WNW 19:06:26 10° SSW
FREGAT/IRIS 2.1 19:04:41 67° NE 19:04:41 67° NE 19:07:10 10° N
Cosmos 1428 Rocket 4.5 18:58:54 10° N 19:05:08 63° ENE 19:10:06 16° SSE
TSX-5 4.1 19:05:43 10° S 19:09:32 51° ESE 19:14:26 10° NE
ARGOS 3.8 19:05:40 10° S 19:10:55 57° W 19:16:15 10° NNW
CZ-2C R/B 2.7 19:06:50 10° NNE 19:12:23 65° ESE 19:17:57 10° S
Cosmos 1340 Rocket 3.0 19:15:11 45° E 19:15:12 45° E 19:19:03 10° NNE
Cosmos 2279 Rocket 4.4 19:12:59 24° SE 19:16:13 41° E 19:22:01 10° NNE
Cosmos 1733 3.0 19:13:48 15° S 19:16:53 72° E 19:20:43 10° NNE
GRACE-FO 1 4.5 19:14:11 10° N 19:17:55 74° E 19:19:03 42° SSE
MOS 1 4.3 19:13:05 13° SSE 19:18:16 86° WSW 19:24:01 10° NNW
GRACE-FO 2 4.5 19:14:34 10° N 19:18:18 75° E 19:19:25 42° SSE
Lacrosse 5 rocket 2.4 19:14:52 10° WNW 19:19:03 41° NNE 19:20:43 29° ENE
Cosmos 2082 Rocket 2.7 19:14:12 10° NNW 19:19:33 43° NE 19:21:17 33° E
Cosmos 2098 Rocket 4.5 19:13:21 10° N 19:19:42 39° ENE 19:21:19 33° E
DMSP B5D2-2 4.0 19:16:57 10° NNE 19:22:15 67° ESE 19:27:30 10° S
BREEZE-M R/B 3.5 19:15:20 10° WSW 19:23:53 59° S 19:24:25 52° SE
Spot 2 Rocket 4.5 19:25:14 28° ENE 19:25:32 28° ENE 19:29:47 10° N
OBJECT-B 0.8 19:28:48 73° N 19:28:48 73° N 19:31:50 10° N
Cosmos 1805 3.7 19:24:58 10° SSW 19:28:50 61° WNW 19:32:45 10° N
Cosmos 2142 Rocket 4.5 19:24:37 15° SSE 19:29:51 58° E 19:35:55 10° NNE
Ariane Rocket 3.5 19:28:06 12° S 19:32:46 57° WSW 19:37:48 10° NNW
H-2A R/B 4.0 19:30:15 10° SSW 19:34:32 28° W 19:38:55 10° NW
Cosmos 1626 2.7 19:37:30 10° NNW 19:41:08 54° W 19:42:02 42° SW
Okean 1-7 Rocket 3.5 19:36:56 10° N 19:41:31 68° ENE 19:41:50 66° ESE
Terra 3.8 19:42:51 15° NE 19:42:51 15° NE 19:44:54 10° NNE
USA 186 4.0 19:42:34 15° SW 19:44:29 24° W 19:47:15 10° NW
COSMOS 2406 3.4 19:39:56 10° NNW 19:45:35 68° WSW 19:47:55 36° S
Cosmos 1455 Rocket 3.8 19:47:18 40° NE 19:47:18 40° NE 19:50:18 10° NNE
Cosmos 1844 Rocket 3.9 19:42:35 10° WSW 19:47:51 42° NW 19:53:12 10° NNE
ISS -2.8 19:45:10 10° W 19:47:46 49° WNW 19:47:46 49° WNW
SPOT 1/Viking Rocket 4.2 19:48:44 38° ENE 19:48:44 38° ENE 19:53:18 10° N
ATLAS CENTAUR R/B 3.8 19:49:43 10° N 19:50:29 10° N 19:51:14 10° NNE
Cosmos 2278 Rocket 2.1 19:46:11 10° S 19:51:42 58° ESE 19:57:16 10° NE
Lacrosse 4 Rocket 1.5 19:49:14 10° NNW 19:52:52 65° N 19:52:52 65° N
Meteor 1-22 Rocket 4.5 19:50:27 10° SSW 19:56:23 76° WNW 20:02:31 10° N
Meteor 1-24 Rocket 4.4 19:52:27 10° NNW 19:57:51 53° W 20:01:37 20° SSW
Cosmos 909 Rocket 4.0 19:51:53 10° NW 19:58:30 76° NE 19:59:55 55° ESE
Exosat Rocket 4.4 19:54:45 10° SW 19:59:45 47° NW 20:04:42 10° NNE
Cosmos 2266 Rocket 3.9 19:54:11 10° N 20:00:08 56° ENE 20:00:34 55° E
SL-14 R/B 4.5 19:57:20 10° NNW 20:01:02 39° W 20:01:55 34° SW
Meteor 2-19 Rocket 4.3 19:55:54 10° N 20:02:04 89° E 20:03:47 50° S
NOSS 3-4 (A) 3.4 19:57:01 10° SW 20:02:58 83° NW 20:09:27 10° NE
NOSS 3-4 (C) 3.4 19:57:07 10° SW 20:03:04 84° NW 20:09:33 10° NE
Resurs 01 Rocket 1.6 20:03:26 79° WSW 20:03:26 79° WSW 20:07:55 10° NNW
Cosmos 1470 4.5 20:12:29 26° N 20:12:29 26° N 20:14:17 10° N
Cosmos 1833 Rocket 3.0 20:05:05 10° NW 20:10:39 59° WSW 20:11:54 48° SSW
CZ-2C R/B 4.1 20:06:25 10° NNE 20:09:57 56° NNE 20:09:57 56° NNE
Cosmos 2251 Rocket 3.4 20:08:09 10° NNW 20:13:34 87° WSW 20:13:44 84° S
ERS-1 Rocket 3.9 20:17:39 36° NNE 20:17:39 36° NNE 20:21:15 10° N
ARIANE 5 R/B 3.3 20:20:05 50° NNW 20:20:05 50° NNW 20:23:19 10° NNW
SPOT 3 Rocket 4.4 20:20:50 38° SW 20:22:12 46° W 20:27:10 10° NNW
ATLAS 2AS CENTAUR R/B 3.1 20:17:55 10° SW 20:25:55 76° NW 20:33:46 10° NE
Landsat 7 4.2 20:27:58 58° NNW 20:27:58 58° NNW 20:31:50 10° NNW
ATLAS 3B R/B 3.2 20:21:36 10° NW 20:28:13 53° WSW 20:29:50 44° SSW
SPOT 5 3.9 20:33:48 42° NNE 20:33:48 42° NNE 20:37:45 10° N
Meteor 2-10 4.4 20:34:18 59° NNE 20:34:18 59° NNE 20:38:37 10° NNE
Meteor 1-21 Rocket 4.2 20:27:28 10° NNW 20:33:15 84° W 20:33:15 84° W
Cosmos 1655 Rocket 4.2 20:30:31 10° NNW 20:36:45 67° W 20:37:50 57° SW
Cosmos 1461 4.2 20:36:08 10° NW 20:39:30 43° NNW 20:39:30 43° NNW
Lacrosse 5 rocket 3.3 20:54:05 10° WNW 20:56:20 29° WNW 20:56:20 29° WNW
Cosmos 2082 Rocket 3.2 20:58:25 10° NW 21:03:08 39° W 21:03:08 39° W
Terra 3.6 21:21:44 28° NNW 21:21:44 28° NNW 21:23:58 10° NNW
Lacrosse 4 Rocket 4.5 21:29:07 10° WNW 21:29:10 10° WNW 21:29:10 10° WNW
Cosmos 2278 Rocket 3.7 21:33:00 19° W 21:36:08 32° NW 21:41:13 10° NNE
USA 229 DEB 4.4 21:42:41 10° NW 21:49:03 51° NNE 21:49:03 51° NNE
USA 229 4.4 21:42:46 10° NW 21:49:09 51° NNE 21:49:09 51° NNE
NOSS 3-1 (A) 4.5 21:54:58 10° NW 22:01:23 51° NNE 22:01:23 51° NNE
Cosmos 2227 Rocket 4.4 22:08:16 10° N 22:11:40 17° NNE 22:11:40 17° NNE
ATLAS 2AS CENTAUR R/B 4.3 22:10:52 10° W 22:18:07 36° NNW 22:25:07 10° NE
Cosmos 1943 Rocket 4.4 22:24:03 18° NNE 22:24:03 18° NNE 22:25:26 10° NNE
CZ-4C R/B 4.1 22:45:17 28° NNE 22:45:17 28° NNE 22:48:54 10° NE
Cosmos 2297 Rocket 4.2 22:53:44 10° NNW 22:56:26 23° N 22:56:26 23° N
Cosmos 2369 Rocket 4.3 23:10:32 22° NNE 23:10:32 22° NNE 23:12:34 10° NNE
SL-16 R/B 4.0 23:50:37 30° NE 23:50:37 30° NE 23:54:50 10° N
